Weather History for KOTH - January, 2013

Change the Weather History Date:

Saturday, January 12, 2013

  Actual Average Record
Temperature  
Mean Temperature 38 °F 46 °F  
Max Temperature 45 °F 51 °F 65 °F (1981)
Min Temperature 30 °F 40 °F 21 °F (1963)
Degree Days  
Heating Degree Days 27 19  
Month to date heating degree days 234 230  
Since 1 July heating degree days 2109 2291  
Cooling Degree Days 0 0  
Month to date cooling degree days 0 0  
Year to date cooling degree days 0 0  
Moisture  
Dew Point 33 °F    
Average Humidity 90    
Maximum Humidity 100    
Minimum Humidity 65    
Precipitation  
Precipitation 0.00 in 0.35 in 2.32 in (1936)
Month to date precipitation 1.47 4.23  
Year to date precipitation 1.47 4.23  
Sea Level Pressure  
Sea Level Pressure 30.32 in    
Wind  
Wind Speed 5 mph (SE)    
Max Wind Speed 8 mph    
Max Gust Speed -    
Visibility 10 miles    
Events      
T = Trace of Precipitation, MM = Missing Value Source: NWS Daily Summary

Daily Weather History Graph

Daily Weather History Graph

Search for Another Location

Airport or City:

Trip Planner

Search our weather history database for the weather conditions in past years. The results will help you decide how hot, cold, wet, or windy it might be!

Date:

Astronomy

Jan. 12, 2013 Rise Set
Actual Time 7:47 AM PST 5:03 PM PST
Civil Twilight 7:15 AM PST 5:35 PM PST
Nautical Twilight 6:40 AM PST 6:10 PM PST
Astronomical Twilight 6:06 AM PST 6:45 PM PST
Moon 8:07 AM PST (1/12) 6:43 PM PST (1/12)
Length of Visible Light 10h 19m
Length of Day
9h 15m
New Moon, 2% of the Moon is Illuminated
Jan 12
New Moon
Jan 18
First Quarter
Jan 26
Full
Feb 3
Last Quarter
Feb 9
New

Hourly Weather History & Observations

Time (PST) Temp. Windchill Dew Point Humidity Pressure Visibility Wind Dir Wind Speed Gust Speed Precip Events Conditions
12:15 AM 35.6 °F 30.7 °F 35.6 °F 100% 30.31 in 10.0 mi SE 5.8 mph - N/A   Partly Cloudy
12:35 AM 35.6 °F 29.2 °F 35.6 °F 100% 30.30 in 10.0 mi SE 8.1 mph - N/A   Partly Cloudy
12:55 AM 35.6 °F 29.9 °F 35.6 °F 100% 30.31 in 10.0 mi SE 6.9 mph - N/A   Mostly Cloudy
1:15 AM 35.6 °F 29.9 °F 35.6 °F 100% 30.31 in 10.0 mi SE 6.9 mph - N/A   Mostly Cloudy
1:35 AM 35.6 °F 29.9 °F 35.6 °F 100% 30.30 in 10.0 mi SE 6.9 mph - N/A   Overcast
1:55 AM 35.6 °F 29.9 °F 35.6 °F 100% 30.31 in 10.0 mi SE 6.9 mph - N/A   Overcast
2:15 AM 35.6 °F 29.9 °F 35.6 °F 100% 30.31 in 10.0 mi SE 6.9 mph - N/A   Overcast
2:35 AM 35.6 °F 30.7 °F 35.6 °F 100% 30.31 in 10.0 mi SE 5.8 mph - N/A   Overcast
2:55 AM 35.6 °F 29.9 °F 35.6 °F 100% 30.31 in 10.0 mi SE 6.9 mph - N/A   Overcast
3:15 AM 35.6 °F 29.9 °F 33.8 °F 93% 30.31 in 10.0 mi SSE 6.9 mph - N/A   Overcast
3:35 AM 35.6 °F 29.9 °F 33.8 °F 93% 30.30 in 10.0 mi SE 6.9 mph - N/A   Overcast
3:55 AM 35.6 °F 30.7 °F 33.8 °F 93% 30.30 in 10.0 mi SSE 5.8 mph - N/A   Overcast
4:15 AM 35.6 °F 29.9 °F 33.8 °F 93% 30.30 in 10.0 mi SSE 6.9 mph - N/A   Overcast
4:35 AM 35.6 °F 29.9 °F 33.8 °F 93% 30.29 in 10.0 mi SSE 6.9 mph - N/A   Overcast
4:55 AM 35.6 °F 30.7 °F 33.8 °F 93% 30.29 in 10.0 mi SE 5.8 mph - N/A   Overcast
5:15 AM 33.8 °F 28.6 °F 32.0 °F 93% 30.29 in 10.0 mi SSE 5.8 mph - N/A   Overcast
5:35 AM 33.8 °F 27.7 °F 32.0 °F 93% 30.30 in 10.0 mi SE 6.9 mph - N/A   Overcast
5:55 AM 35.6 °F 31.7 °F 33.8 °F 93% 30.30 in 10.0 mi SE 4.6 mph - N/A   Overcast
6:15 AM 33.8 °F 28.6 °F 33.8 °F 100% 30.30 in 10.0 mi SE 5.8 mph - N/A   Overcast
6:35 AM 33.8 °F 27.7 °F 33.8 °F 100% 30.30 in 10.0 mi SE 6.9 mph - N/A   Overcast
6:55 AM 33.8 °F 28.6 °F 33.8 °F 100% 30.29 in 10.0 mi SSE 5.8 mph - N/A   Overcast
7:15 AM 33.8 °F 29.6 °F 32.0 °F 93% 30.30 in 10.0 mi SE 4.6 mph - N/A   Overcast
7:35 AM 33.8 °F 28.6 °F 33.8 °F 100% 30.30 in 10.0 mi SSE 5.8 mph - N/A   Overcast
7:55 AM 33.8 °F 28.6 °F 33.8 °F 100% 30.31 in 10.0 mi SSE 5.8 mph - N/A   Overcast
8:15 AM 33.8 °F 28.6 °F 33.8 °F 100% 30.31 in 10.0 mi SE 5.8 mph - N/A   Overcast
8:35 AM 35.6 °F 31.7 °F 35.6 °F 100% 30.31 in 10.0 mi SSE 4.6 mph - N/A   Overcast
8:55 AM 37.4 °F 32.8 °F 35.6 °F 93% 30.32 in 10.0 mi SE 5.8 mph - N/A   Overcast
9:15 AM 37.4 °F 31.4 °F 35.6 °F 93% 30.32 in 10.0 mi SE 8.1 mph - N/A   Overcast
10:15 AM 39.2 °F 35.0 °F 35.6 °F 87% 30.33 in 10.0 mi SE 5.8 mph - N/A   Overcast
10:55 AM 39.2 °F 35.0 °F 35.6 °F 87% 30.32 in 10.0 mi SE 5.8 mph - N/A   Overcast
11:35 AM 41.0 °F 39.0 °F 35.6 °F 81% 30.32 in 10.0 mi SE 3.5 mph - N/A   Overcast
11:55 AM 41.0 °F - 35.6 °F 81% 30.32 in 10.0 mi Calm Calm - N/A   Overcast
12:15 PM 41.0 °F 39.0 °F 35.6 °F 81% 30.31 in 10.0 mi SSE 3.5 mph - N/A   Overcast
12:35 PM 42.8 °F - 35.6 °F 76% 30.30 in 10.0 mi Calm Calm - N/A   Overcast
12:55 PM 42.8 °F 41.1 °F 35.6 °F 76% 30.30 in 10.0 mi SE 3.5 mph - N/A   Overcast
1:15 PM 42.8 °F - 35.6 °F 76% 30.30 in 10.0 mi Calm Calm - N/A   Overcast
1:35 PM 42.8 °F 41.1 °F 35.6 °F 76% 30.30 in 10.0 mi East 3.5 mph - N/A   Overcast
1:55 PM 42.8 °F 40.1 °F 35.6 °F 76% 30.29 in 10.0 mi SSE 4.6 mph - N/A   Mostly Cloudy
2:15 PM 44.6 °F 42.2 °F 35.6 °F 71% 30.30 in 10.0 mi ESE 4.6 mph - N/A   Partly Cloudy
2:35 PM 42.8 °F 41.1 °F 35.6 °F 76% 30.30 in 10.0 mi ESE 3.5 mph - N/A   Clear
2:55 PM 42.8 °F - 35.6 °F 76% 30.31 in 10.0 mi Calm Calm - N/A   Clear
3:15 PM 42.8 °F - 35.6 °F 76% 30.32 in 10.0 mi Calm Calm - N/A   Clear
3:35 PM 42.8 °F - 35.6 °F 76% 30.31 in 10.0 mi Calm Calm - N/A   Clear
3:55 PM 44.6 °F 42.2 °F 33.8 °F 66% 30.31 in 10.0 mi ESE 4.6 mph - N/A   Clear
4:15 PM 42.8 °F - 35.6 °F 76% 30.32 in 10.0 mi Calm Calm - N/A   Clear
4:35 PM 41.0 °F 36.4 °F 33.8 °F 76% 30.32 in 10.0 mi East 6.9 mph - N/A   Clear
4:55 PM 39.2 °F 33.6 °F 33.8 °F 81% 30.32 in 10.0 mi East 8.1 mph - N/A   Clear
5:15 PM 37.4 °F 30.8 °F 32.0 °F 81% 30.33 in 10.0 mi East 9.2 mph - N/A   Clear
5:35 PM 35.6 °F 31.7 °F 32.0 °F 87% 30.33 in 10.0 mi East 4.6 mph - N/A   Clear
5:55 PM 35.6 °F 29.9 °F 30.2 °F 81% 30.34 in 10.0 mi NE 6.9 mph - N/A   Clear
6:15 PM 35.6 °F 29.2 °F 30.2 °F 81% 30.34 in 10.0 mi NE 8.1 mph - N/A   Clear
6:35 PM 35.6 °F 29.2 °F 32.0 °F 87% 30.35 in 10.0 mi NNE 8.1 mph - N/A   Clear
6:55 PM 35.6 °F 30.7 °F 33.8 °F 93% 30.35 in 10.0 mi NNE 5.8 mph - N/A   Clear
7:15 PM 33.8 °F 28.6 °F 33.8 °F 100% 30.35 in 10.0 mi NE 5.8 mph - N/A   Clear
7:35 PM 33.8 °F 29.6 °F 32.0 °F 93% 30.35 in 10.0 mi NNE 4.6 mph - N/A   Clear
7:55 PM 33.8 °F 30.8 °F 32.0 °F 93% 30.35 in 10.0 mi SE 3.5 mph - N/A   Clear
8:15 PM 30.2 °F 26.7 °F 30.2 °F 100% 30.36 in 10.0 mi South 3.5 mph - N/A   Clear
8:35 PM 30.2 °F 26.7 °F 30.2 °F 100% 30.36 in 10.0 mi SSE 3.5 mph - N/A   Clear
8:55 PM 30.2 °F 23.4 °F 28.4 °F 93% 30.36 in 10.0 mi ESE 6.9 mph - N/A   Clear
9:15 PM 30.2 °F 26.7 °F 28.4 °F 93% 30.37 in 10.0 mi East 3.5 mph - N/A   Clear
9:35 PM 30.2 °F 25.4 °F 28.4 °F 93% 30.37 in 10.0 mi SE 4.6 mph - N/A   Clear
9:55 PM 30.2 °F 26.7 °F 28.4 °F 93% 30.38 in 10.0 mi SSE 3.5 mph - N/A   Clear
10:15 PM 30.2 °F 24.3 °F 28.4 °F 93% 30.38 in 10.0 mi SE 5.8 mph - N/A   Clear
10:35 PM 30.2 °F 24.3 °F 28.4 °F 93% 30.38 in 10.0 mi SE 5.8 mph - N/A   Clear
10:55 PM 30.2 °F 25.4 °F 30.2 °F 100% 30.38 in 10.0 mi SE 4.6 mph - N/A   Clear
11:15 PM 30.2 °F 23.4 °F 28.4 °F 93% 30.39 in 10.0 mi ESE 6.9 mph - N/A   Clear
11:35 PM 30.2 °F 23.4 °F 30.2 °F 100% 30.40 in 10.0 mi ESE 6.9 mph - N/A   Clear
11:55 PM 30.2 °F 24.3 °F 30.2 °F 100% 30.39 in 10.0 mi ESE 5.8 mph - N/A   Clear